Simultaneous Nadir Overpasses (SNOs) Predictions

Prediction of SNOs near equator between AQUA and NPP Satellite Orbit:

Table of predicted SNOs near equator for the next 14.0 days since TLE Epoch: 6/14/2014
Index Date (AQUA) Time (AQUA) AQUA Lat,Lon Date (NPP) Time (NPP) NPP Lat,Lon Distance(km) Time Diff (sec)
1 06/17/2014 04:42:14 29.97, 128.66 06/17/2014 04:33:10 30.13, 129.40 73.48 544
2 06/17/2014 05:31:37 -30.00, -63.69 06/17/2014 05:23:50 -30.06, -63.25 42.91 467
3 06/17/2014 06:21:07 29.97, 103.94 06/17/2014 06:14:38 30.01, 104.06 12.50 389
4 06/17/2014 07:06:32 -15.68, -84.98 06/17/2014 07:01:14 -15.68, -84.97 1.24 318
5 06/17/2014 07:49:15 -8.96, 87.95 06/17/2014 07:45:04 -8.96, 87.94 0.62 251
6 06/17/2014 08:35:47 19.23,-102.12 06/17/2014 08:32:49 19.27,-102.31 20.21 178
7 06/17/2014 09:24:02 -23.79, 66.58 06/17/2014 09:22:19 -23.91, 66.15 45.62 103
8 06/17/2014 10:12:09 28.33,-124.64 06/17/2014 10:11:42 28.46,-125.33 68.38 27
9 06/17/2014 11:01:13 -29.92, 43.39 06/17/2014 11:02:03 -30.10, 42.42 95.55 50
10 06/19/2014 20:09:10 -29.95, 76.93 06/19/2014 19:59:20 -30.18, 77.87 93.87 590
11 06/19/2014 20:58:41 29.99,-115.45 06/19/2014 20:50:08 30.13,-114.82 63.23 513
12 06/19/2014 21:48:03 -29.95, 52.21 06/19/2014 21:40:47 -30.01, 52.54 32.71 436
13 06/19/2014 22:37:23 29.32,-140.00 06/19/2014 22:31:24 29.31,-139.97 3.51 359
14 06/19/2014 23:21:02 -8.64, 32.45 06/19/2014 23:16:12 -8.64, 32.45 0.92 290
15 06/20/2014 00:03:44 -16.01,-154.62 06/20/2014 00:00:01 -16.00,-154.64 2.71 223
16 06/20/2014 00:51:42 21.08, 14.20 06/20/2014 00:49:14 21.14, 13.93 28.44 148
17 06/20/2014 01:39:57 -25.64,-177.09 06/20/2014 01:38:45 -25.72,-177.61 53.00 72
18 06/20/2014 02:28:08 29.93, -8.34 06/20/2014 02:28:11 30.09, -9.10 75.16 3
19 06/22/2014 12:25:36 -29.99,-167.19 06/22/2014 12:16:17 -30.18,-166.35 83.35 559
20 06/22/2014 13:15:06 29.97, 0.44 06/22/2014 13:07:04 30.08, 0.97 52.85 482
21 06/22/2014 14:04:29 -29.99, 168.09 06/22/2014 13:57:44 -30.01, 168.32 22.43 405
22 06/22/2014 14:52:12 23.53, -22.67 06/22/2014 14:46:42 23.53, -22.66 0.95 330
23 06/22/2014 15:34:45 1.17, 150.43 06/22/2014 15:30:22 1.17, 150.44 0.41 263
24 06/22/2014 16:19:31 -18.38, -38.20 06/22/2014 16:16:18 -18.40, -38.29 10.59 193
25 06/22/2014 17:07:38 22.90, 130.52 06/22/2014 17:05:41 22.95, 130.16 36.71 117
26 06/22/2014 17:55:53 -27.46, -60.74 06/22/2014 17:55:11 -27.58, -61.34 60.05 42
27 06/22/2014 18:44:35 29.88, 107.53 06/22/2014 18:45:09 30.09, 106.68 85.70 34
28 06/25/2014 04:42:01 -29.94, -51.29 06/25/2014 04:33:13 -30.08, -50.55 72.95 528
29 06/25/2014 05:31:32 29.99, 116.32 06/25/2014 05:24:02 30.10, 116.75 42.34 450
30 06/25/2014 06:20:54 -29.94, -76.01 06/25/2014 06:14:41 -29.96, -75.89 11.74 373
31 06/25/2014 07:06:49 16.97, 94.74 06/25/2014 07:01:48 16.97, 94.73 1.45 301
32 06/25/2014 07:48:47 9.85, -91.82 06/25/2014 07:44:52 9.85, -91.82 0.16 235
33 06/25/2014 08:35:26 -20.23, 78.12 06/25/2014 08:32:44 -20.26, 77.94 19.35 162
34 06/25/2014 09:23:33 24.76,-113.15 06/25/2014 09:22:06 24.87,-113.57 44.56 87
35 06/25/2014 10:11:48 -29.30, 55.62 06/25/2014 10:11:37 -29.44, 54.94 66.91 11
36 06/25/2014 11:01:00 29.93,-136.56 06/25/2014 11:02:06 30.13,-137.53 96.13 66
37 06/27/2014 20:09:04 29.97,-103.06 06/27/2014 19:59:31 30.17,-102.12 92.75 573
38 06/27/2014 20:58:27 -29.98, 64.59 06/27/2014 20:50:11 -30.09, 65.23 62.18 496
39 06/27/2014 21:47:57 29.97,-127.78 06/27/2014 21:40:59 30.06,-127.47 31.68 418
40 06/27/2014 22:37:19 -29.92, 39.89 06/27/2014 22:31:38 -29.92, 39.90 1.18 341
41 06/27/2014 23:20:39 7.59,-147.31 06/27/2014 23:16:06 7.59,-147.31 0.68 273
42 06/28/2014 00:03:09 17.30, 25.72 06/27/2014 23:59:43 17.29, 25.70 2.13 206
43 06/28/2014 00:51:20 -22.11,-165.54 06/28/2014 00:49:09 -22.17,-165.81 27.94 131
44 06/28/2014 01:39:27 26.64, 3.21 06/28/2014 01:38:32 26.73, 2.70 52.17 55
45 06/28/2014 02:28:03 -29.92, 171.67 06/28/2014 02:28:24 -30.06, 170.89 76.32 21




NCC Satellite Simultaneous Nadir Overpasses (SNOs) Prediction Service
